Weather in Bolshesidorovskoye

Russia / Republic of Adygea     45°01′56″N   39°50′25″E
temp.,
°C
wind,
m/s
gust,
m/s
humid.,
%
clouds,
%
prec.,
mm/h
press.,
hPa
HPBL,
m
29 june, wed
wed2900:00+17ne368152 0.0 1012122
03:00+17e2386100 0.0 101247
06:00+17ene3582100 0.0 1013128
09:00+23ene356362 0.0 1013507
12:00+27ene5648100 0.0 10121278
15:00+29ene674060 0.0 10121789
18:00+27e465429 0.0 1012357
21:00+22ene336387 0.0 101238
30 june, thu
thu3000:00+20ene377511 0.0 1012130
03:00+18ene39710 0.0 1013187
06:00+18e36740 0.0 1012144
09:00+25ne44590 0.0 1012555
12:00+29ne56470 0.0 10121494
15:00+30ne55401 0.0 10111988
18:00+28nne59482 0.0 1010514
21:00+21ne411544 0.0 1011190
1 july, fri
fri100:00+19ne494927 0.0 1011141
03:00+18ne494599 0.0 1011145
06:00+18ene365437 0.0 1011131
09:00+24ne44461 0.0 1012527
12:00+28ne55352 0.0 10121389
15:00+29nne55332 0.0 10112228
18:00+27nne45420 0.0 1011431
21:00+21e22497 0.0 101211
2 july, sat
sat200:00+19nne513493 0.0 1013297
03:00+16ne4115439 0.0 1014242
06:00+15ne410640 0.0 1016304
09:00+20ne67440 0.0 1017881
12:00+23nne66320 0.0 10171505
15:00+25ne67320 0.0 10161899
18:00+24ene46380 0.0 10171532
21:00+18ese33490 0.0 101719
3 july, sun
sun300:00+16ne22520 0.0 101811
03:00+14ne33570 0.0 101830
06:00+14ene35650 0.0 1018124
09:00+22ne45460 0.0 1018683
12:00+25ne44330 0.0 10181983
15:00+27ne45310 0.0 10172110
18:00+26ne35370 0.0 10171061
21:00+20e33460 0.0 101817